[[{"header":{"parameterUnit":"m.s-1","parameterCategory":1,"la1":30.2991,"la2":30.254,"lo1":-89.0895,"lo2":-89.0444,"dy":0.0017,"dx":0.0017,"nx":28,"ny":28,"refTime":"2024-03-13T03:00:00:Z","depth":0,"parameterNumber":2,"parameterNumberName":"U-component_of_WINDS"},"data":[0,0,0,0,0,0,0,0,0,0,0,0,0,0,0,0,0,0,0,0,0,0,0,0,0,0,0,0,0,0,0,0,0,0,0,0,0,0,0,0,0,0,0,0,0,0,0,0,0,0,0,0,0,0,0,0,0,0,-3.4898,-3.4898,0,-3.4919,-3.492,-3.492,-3.4855,-3.4853,-3.4851,-3.485,-3.4872,-3.4875,-3.4877,0,0,0,0,0,0,0,0,0,0,0,0,0,-3.4802,-3.4804,-3.4898,-3.4898,-3.4898,-3.4919,-3.492,-3.492,-3.4856,-3.4853,-3.4851,-3.4849,-3.4872,-3.4875,-3.4877,0,0,0,0,0,0,0,0,0,0,0,0,0,-3.4836,-3.4805,-3.4898,-3.4869,-3.4866,-3.4919,-3.492,-3.492,-3.4856,-3.4853,-3.485,-3.4848,-3.4871,-3.4874,-3.4878,-3.496,0,0,-3.4889,-3.4891,0,0,0,0,0,0,0,0,-3.4834,-3.4839,-3.4873,-3.4871,-3.4868,-3.4882,-3.4894,-3.4933,-3.4857,-3.486,-3.485,-3.4846,-3.4878,-3.4881,-3.4891,-3.4961,-3.4962,-3.4889,-3.4892,-3.4893,-3.4894,0,0,0,0,0,0,0,-3.4832,-3.4838,-3.4906,-3.4873,-3.4871,-3.4855,-3.4857,-3.4901,-3.4885,-3.486,-3.4855,-3.4858,-3.4876,-3.4888,-3.4891,-3.4962,-3.4889,-3.4893,-3.4895,-3.4896,-3.51,-3.5103,0,0,0,0,0,0,-3.4833,-3.4837,-3.4906,-3.4907,-3.4843,-3.4859,-3.4861,-3.488,-3.4885,-3.4883,-3.4861,-3.4855,-3.4883,-3.4887,-3.4892,-3.4988,-3.4893,-3.4897,-3.4899,-3.5097,-3.5101,-3.5105,0,0,0,0,0,0,-3.4831,-3.484,-3.4905,-3.4871,-3.4878,-3.4864,-3.4886,-3.4882,-3.4894,-3.4886,-3.4883,-3.4876,-3.4881,-3.4887,-3.4943,-3.4988,-3.4898,-3.4902,-3.5093,-3.5098,-3.5103,-3.5181,0,0,0,0,0,0,-3.4829,-3.484,-3.487,-3.4872,-3.488,-3.4956,-3.4889,-3.4885,-3.49,-3.4893,-3.4899,-3.4897,-3.4879,-3.4938,-3.4947,-3.4991,-3.4904,-3.5089,-3.5096,-3.5101,-3.5175,-3.5188,-3.52,0,0,0,0,0,-3.4826,-3.4891,-3.4872,-3.4881,-3.4918,-3.4958,-3.4963,-3.4941,-3.4904,-3.4935,-3.493,-3.4897,-3.4982,-3.4945,-3.4954,-3.5,-3.5086,-3.5094,-3.5101,-3.5169,-3.5185,-3.5199,0,0,0,0,0,0,-3.4896,-3.4891,-3.4869,-3.4938,-3.4949,-3.4947,-3.4985,-3.4959,-3.4981,-3.4973,-3.4945,-3.4947,-3.5009,-3.501,-3.4969,-3.508,-3.5028,-3.5037,-3.5076,-3.5092,-3.5104,-3.5102,-3.4908,0,0,0,0,0,-3.4919,-3.4952,-3.4946,-3.5007,-3.5014,-3.4999,-3.5016,-3.4998,-3.5009,-3.5013,-3.5012,-3.5024,-3.5053,-3.5073,-3.5099,-3.5175,-3.5175,-3.5211,-3.5224,-3.5234,-3.5242,-3.5283,-3.5299,-3.5128,-3.5128,-3.5128,0,0,-3.4968,-3.4969,-3.4992,-3.5021,-3.5028,-3.5063,-3.5003,-3.5043,-3.5069,-3.5019,-3.5072,-3.5072,-3.5083,-3.515,-3.5179,-3.5153,-3.529,-3.5243,-3.5252,-3.5254,-3.5292,-3.5308,-3.5322,-3.5133,-3.5132,-3.5132,0,0,-3.5074,-3.5079,-3.513,-3.5138,-3.5148,-3.5138,-3.5151,-3.5153,-3.5151,-3.5204,-3.5168,-3.5198,-3.5249,-3.5259,-3.5271,-3.5382,-3.5352,-3.5392,-3.5457,-3.5496,-3.551,-3.5522,-3.5561,-3.5575,-3.54,-3.54,-3.54,0,-3.5133,-3.5184,-3.5159,-3.5202,-3.5216,-3.5173,-3.5224,-3.5233,-3.5253,-3.5264,-3.5234,-3.5298,-3.5302,-3.537,-3.5398,-3.5409,-3.5422,-3.539,-3.551,-3.5521,-3.5532,-3.5569,-3.5584,-3.5405,-3.5404,-3.5404,-3.5403,0,-3.5256,-3.5292,-3.5332,-3.5352,-3.537,-3.5418,-3.54,-3.5423,-3.5404,-3.5397,-3.5452,-3.5456,-3.5483,-3.5498,-3.548,-3.5564,-3.5547,-3.5514,-3.5461,-3.5553,-3.5588,-3.5602,-3.5412,-3.541,-3.5408,-3.5407,0,0,-3.5406,-3.5412,-3.5427,-3.5435,-3.5444,-3.5472,-3.5517,-3.5543,-3.5563,-3.5578,-3.5615,-3.566,-3.563,-3.5643,-3.5626,-3.5661,-3.5749,-3.5623,-3.5623,-3.5646,-3.5841,-3.5866,-3.5882,-3.5729,-3.5732,-3.5734,-3.584,0,-3.551,-3.5587,-3.5567,-3.5644,-3.5677,-3.5637,-3.5677,-3.5687,-3.5682,-3.571,-3.5705,-3.5737,-3.5695,-3.5702,-3.5735,-3.5731,-3.5787,-3.5723,-3.5764,-3.5766,-3.5761,-3.59,-3.5926,-3.6026,-3.5854,-3.5856,-3.5858,0,-3.5642,-3.5662,-3.5742,-3.5746,-3.5759,-3.5795,-3.5817,-3.5845,-3.5856,-3.585,-3.5865,-3.5841,-3.5886,-3.5834,-3.5896,-3.5853,-3.5869,-3.5869,-3.5873,-3.5875,-3.5816,-3.5906,-3.6057,-3.6072,-3.5879,-3.5877,-3.5876,0,-3.5743,-3.579,-3.5844,-3.5852,-3.5858,-3.5884,-3.5888,-3.5896,-3.5913,-3.5933,-3.5944,-3.597,-3.5983,-3.6004,-3.5987,-3.5951,-3.6052,-3.5998,-3.6049,-3.6049,-3.6071,-3.6069,-3.6226,-3.6083,-3.6082,-3.6082,-3.6082,0,-3.5861,-3.5911,-3.5889,-3.5922,-3.5978,-3.5955,-3.6011,-3.601,-3.6018,-3.605,-3.6018,-3.6049,-3.6026,-3.6056,-3.6044,-3.6097,-3.6103,-3.61,-3.6096,-3.6103,-3.6103,-3.6112,-3.6104,-3.6086,-3.6085,-3.6084,-3.6084,0,-3.5982,-3.5969,-3.6026,-3.6027,-3.6029,-3.607,-3.6071,-3.6102,-3.6095,-3.6137,-3.6145,-3.6135,-3.6168,-3.6154,-3.619,-3.6181,-3.625,-3.6237,-3.6246,-3.6242,-3.6293,-3.6288,-3.646,-3.6481,-3.6325,-3.6326,-3.6327,0,-3.6058,-3.6096,-3.6102,-3.6121,-3.6127,-3.6159,-3.6176,-3.6155,-3.6175,-3.619,-3.622,-3.625,-3.6273,-3.6329,-3.6325,-3.6352,-3.6339,-3.6397,-3.6343,-3.6348,-3.6339,-3.6337,-3.634,-3.6408,-3.641,-3.6411,-3.6412,0,-3.6194,-3.6186,-3.6212,-3.6236,-3.6258,-3.6276,-3.6291,-3.6309,-3.6289,-3.6313,-3.6346,-3.6364,-3.64,-3.6431,-3.6455,-3.6459,-3.6433,-3.643,-3.6443,-3.6449,-3.6453,-3.6451,-3.6275,-3.6426,-3.6424,-3.6423,-3.6423,-3.6422,-3.6295,-3.6327,-3.6335,-3.6366,-3.6375,-3.639,-3.6419,-3.6416,-3.6444,-3.6471,-3.6458,-3.6497,-3.6508,-3.6537,-3.6545,-3.6576,-3.6553,-3.6572,-3.6576,-3.6581,-3.6588,-3.6449,-3.658,-3.658,-3.658,-3.6579,-3.6579,0,-3.6429,-3.6432,-3.6461,-3.6483,-3.6507,-3.648,-3.6496,-3.6517,-3.6552,-3.6564,-3.6588,-3.6627,-3.6657,-3.6655,-3.6683,-3.6708,-3.6697,-3.6716,-3.6713,-3.6715,-3.6607,-3.6593,-3.6725,-3.6725,-3.6725,-3.6725,-3.6725,-3.6725,-3.6501,-3.6553,-3.6547,-3.6604,-3.6607,-3.6645,-3.6656,-3.667,-3.668,-3.6725,-3.6749,-3.6748,-3.6755,-3.6783,-3.6809,-3.6808,-3.682,-3.6844,-3.6838,-3.6737,-3.6723,-3.6709,-3.6695,-3.6847,-3.6847,-3.6944,-3.6944,-3.6945]},{"header":{"parameterUnit":"m.s-1","parameterCategory":1,"la1":30.2991,"la2":30.254,"lo1":-89.0895,"lo2":-89.0444,"dy":0.0017,"dx":0.0017,"nx":28,"ny":28,"refTime":"2024-03-13T03:00:00:Z","depth":0,"parameterNumber":3,"parameterNumberName":"V-component_of_WINDS"},"data":[0,0,0,0,0,0,0,0,0,0,0,0,0,0,0,0,0,0,0,0,0,0,0,0,0,0,0,0,0,0,0,0,0,0,0,0,0,0,0,0,0,0,0,0,0,0,0,0,0,0,0,0,0,0,0,0,0,0,2.2988,2.299,0,2.3084,2.3085,2.3086,2.3157,2.3157,2.3158,2.3159,2.3252,2.3254,2.3256,0,0,0,0,0,0,0,0,0,0,0,0,0,2.2863,2.2865,2.2988,2.299,2.2991,2.3084,2.3085,2.3086,2.3157,2.3157,2.3158,2.3159,2.3251,2.3253,2.3256,0,0,0,0,0,0,0,0,0,0,0,0,0,2.2934,2.2866,2.2988,2.3037,2.3043,2.3084,2.3085,2.3087,2.3157,2.3157,2.3158,2.3159,2.325,2.3253,2.3256,2.3255,0,0,2.3265,2.3266,0,0,0,0,0,0,0,0,2.293,2.2938,2.3029,2.3034,2.304,2.311,2.3075,2.3143,2.3156,2.3113,2.3159,2.316,2.3203,2.321,2.3226,2.3259,2.3263,2.3265,2.3267,2.3268,2.3269,0,0,0,0,0,0,0,2.2925,2.2935,2.3026,2.303,2.3037,2.3053,2.3064,2.3088,2.3152,2.3117,2.3122,2.3133,2.3207,2.3223,2.3229,2.3264,2.3265,2.3267,2.3269,2.327,2.3302,2.3302,0,0,0,0,0,0,2.2913,2.293,2.3023,2.3029,2.2986,2.3055,2.3067,2.3086,2.3152,2.3163,2.3132,2.3136,2.3218,2.3225,2.3232,2.3236,2.3268,2.3271,2.3272,2.3303,2.3302,2.3301,0,0,0,0,0,0,2.291,2.292,2.3019,2.2981,2.2995,2.3056,2.3077,2.3088,2.3104,2.3163,2.3174,2.3137,2.3219,2.3228,2.3249,2.324,2.3272,2.3274,2.3304,2.3303,2.3302,2.3242,0,0,0,0,0,0,2.2906,2.2919,2.292,2.2981,2.2997,2.3036,2.3076,2.3089,2.3109,2.3115,2.3171,2.3181,2.322,2.3245,2.3252,2.3245,2.3277,2.3305,2.3304,2.3302,2.3245,2.3239,2.3234,0,0,0,0,0,2.2901,2.2898,2.2919,2.293,2.2999,2.3035,2.3044,2.309,2.3108,2.3109,2.3147,2.3179,2.324,2.3246,2.3255,2.3248,2.3306,2.3304,2.3302,2.3248,2.324,2.3234,0,0,0,0,0,0,2.2832,2.2907,2.2931,2.2948,2.2985,2.3047,2.3049,2.3081,2.3112,2.3116,2.3171,2.3182,2.3198,2.3225,2.3231,2.3251,2.3277,2.3277,2.3233,2.3226,2.322,2.3213,2.3279,0,0,0,0,0,2.282,2.2844,2.2907,2.2915,2.2933,2.2988,2.3005,2.3038,2.3077,2.3093,2.3132,2.3168,2.3196,2.3212,2.324,2.325,2.3263,2.325,2.3244,2.3239,2.3238,2.3246,2.324,2.3295,2.3295,2.3295,0,0,2.2792,2.2836,2.2847,2.2903,2.2935,2.2958,2.3,2.3022,2.3039,2.3095,2.3119,2.3149,2.3192,2.3208,2.3217,2.3231,2.3226,2.3236,2.3232,2.3234,2.3243,2.3238,2.3233,2.3294,2.3294,2.3294,0,0,2.2755,2.279,2.2802,2.2834,2.2883,2.292,2.2923,2.2981,2.3004,2.3028,2.3071,2.3091,2.3137,2.3167,2.3188,2.3163,2.3194,2.3171,2.3141,2.3147,2.3143,2.314,2.3131,2.3127,2.317,2.3169,2.3169,0,2.2715,2.2752,2.2804,2.2824,2.2847,2.2901,2.2913,2.2941,2.2995,2.301,2.3025,2.3085,2.3118,2.3142,2.3136,2.3151,2.3156,2.3165,2.314,2.3137,2.3134,2.3127,2.3123,2.3166,2.3167,2.3167,2.3167,0,2.2701,2.2726,2.2729,2.2783,2.2807,2.2822,2.2875,2.2892,2.2923,2.2958,2.2982,2.3024,2.3062,2.307,2.3099,2.3098,2.3106,2.313,2.3157,2.3125,2.3119,2.3117,2.3162,2.3163,2.3164,2.3165,0,0,2.2622,2.2706,2.2706,2.2732,2.2791,2.281,2.2828,2.2868,2.2881,2.2917,2.2934,2.2972,2.2995,2.3019,2.3052,2.3058,2.3037,2.3082,2.3084,2.3073,2.3038,2.302,2.3016,2.3058,2.3057,2.3057,2.3035,0,2.2594,2.2631,2.2679,2.2699,2.2723,2.2775,2.2791,2.2828,2.2861,2.2885,2.2922,2.2948,2.2977,2.2992,2.3,2.3038,2.3031,2.304,2.3073,2.3073,2.306,2.3013,2.2993,2.297,2.3033,2.3032,2.3032,0,2.2566,2.2602,2.2626,2.2684,2.2696,2.2709,2.2749,2.2772,2.2815,2.2839,2.2866,2.2903,2.2924,2.2948,2.2977,2.2983,2.2999,2.3019,2.302,2.3024,2.3051,2.3016,2.2964,2.296,2.3029,2.3029,2.3029,0,2.2508,2.2561,2.2583,2.2603,2.2671,2.2679,2.2708,2.2752,2.2773,2.2807,2.2822,2.2857,2.2877,2.2903,2.2948,2.2962,2.2973,2.3001,2.2992,2.2991,2.2992,2.2991,2.2942,2.3002,2.3002,2.3002,2.3002,0,2.2472,2.2484,2.2558,2.2571,2.2586,2.264,2.2653,2.2686,2.2725,2.2745,2.2791,2.2808,2.2867,2.289,2.2925,2.2945,2.2953,2.2972,2.2981,2.2968,2.2966,2.2979,2.2982,2.3001,2.3001,2.3002,2.3002,0,2.2408,2.2458,2.2485,2.2548,2.2564,2.2572,2.2626,2.264,2.2676,2.2701,2.2709,2.2766,2.2796,2.2844,2.2888,2.2912,2.2925,2.294,2.2911,2.2916,2.2906,2.2906,2.2863,2.286,2.2921,2.2921,2.292,0,2.2382,2.2394,2.2458,2.2476,2.2503,2.253,2.2552,2.2606,2.2627,2.2677,2.2685,2.272,2.275,2.2797,2.2841,2.2875,2.2891,2.2874,2.2896,2.2883,2.2891,2.289,2.2892,2.2868,2.2867,2.2866,2.2866,0,2.2331,2.2356,2.2387,2.2426,2.2452,2.2486,2.2521,2.2532,2.2593,2.2614,2.2647,2.2671,2.2717,2.2751,2.2791,2.2819,2.2852,2.2858,2.2859,2.2845,2.2828,2.2838,2.2897,2.2859,2.286,2.286,2.2861,2.2861,2.2286,2.2299,2.2347,2.238,2.2413,2.2445,2.2462,2.2501,2.253,2.2573,2.2603,2.2634,2.2677,2.2735,2.2761,2.2786,2.28,2.28,2.28,2.2799,2.2794,2.2824,2.2793,2.2793,2.2794,2.2794,2.2794,0,2.2238,2.2272,2.2302,2.2351,2.2377,2.2408,2.2449,2.2468,2.2496,2.2534,2.2564,2.2602,2.2635,2.2682,2.2718,2.2729,2.2745,2.2737,2.2736,2.2742,2.2779,2.2776,2.2723,2.2723,2.2723,2.2723,2.2723,2.2723,2.2216,2.2239,2.2269,2.2309,2.2343,2.2375,2.2396,2.2426,2.2457,2.2498,2.2526,2.2558,2.26,2.264,2.2671,2.2684,2.2695,2.2682,2.27,2.2733,2.274,2.2746,2.2743,2.2684,2.2684,2.2661,2.2661,2.266]}]]